Weather History for Sanford, FL

Change the Weather History Date:

Friday, November 9, 2012

  Actual Average Record
Temperature  
Mean Temperature 58 °F -  
Max Temperature 72 °F 78 °F 120 °F (1996)
Min Temperature 44 °F 56 °F 42 °F (1970)
Degree Days  
Heating Degree Days 7    
Growing Degree Days 8 (Base 50)    
Moisture  
Dew Point 43 °F    
Average Humidity 62    
Maximum Humidity 90    
Minimum Humidity 27    
Precipitation  
Precipitation 0.00 in - - ()
Sea Level Pressure  
Sea Level Pressure 30.24 in    
Wind  
Wind Speed 4 mph (North)    
Max Wind Speed 10 mph    
Max Gust Speed -    
Visibility 10 miles    
Events      
Averages and records for this station are not official NWS values.
T = Trace of Precipitation, MM = Missing Value Source: NWS Daily Summary

Daily Weather History Graph

Daily Weather History Graph

Search for Another Location

Airport:

Trip Planner

Search our weather history database for the weather conditions in past years. The results will help you decide how hot, cold, wet, or windy it might be!

Date:

Astronomy

Nov. 09, 2012 Rise Set
Actual Time 6:43 AM EST 5:33 PM EST
Civil Twilight 6:18 AM EST 5:58 PM EST
Nautical Twilight 5:50 AM EST 6:26 PM EST
Astronomical Twilight 5:22 AM EST 6:54 PM EST
Moon 2:02 AM EST (11/9) 2:27 PM EST (11/9)
Length of Visible Light 11h 39m
Length of Day
10h 50m
Waning Crescent, 23% of the Moon is Illuminated
Nov 9
Waning Crescent
Nov 13
New
Nov 20
First Quarter
Nov 28
Full
Dec 6
Last Quarter

Hourly Weather History & Observations

Time (EST) Temp. Windchill Dew Point Humidity Pressure Visibility Wind Dir Wind Speed Gust Speed Precip Events Conditions
12:53 AM 48.9 °F - 43.0 °F 80% 30.19 in 10.0 mi WNW 3.5 mph - N/A   Clear
1:53 AM 46.9 °F - 42.1 °F 83% 30.19 in 10.0 mi Calm Calm - N/A   Clear
2:53 AM 48.0 °F - 41.0 °F 77% 30.19 in 10.0 mi WNW 3.5 mph - N/A   Clear
3:53 AM 44.1 °F 40.8 °F 39.9 °F 85% 30.19 in 10.0 mi WNW 5.8 mph - N/A   Clear
4:53 AM 45.0 °F 42.6 °F 41.0 °F 86% 30.21 in 10.0 mi WNW 4.6 mph - N/A   Clear
5:53 AM 46.0 °F 44.8 °F 42.1 °F 86% 30.22 in 10.0 mi NW 3.5 mph - N/A   Clear
6:53 AM 45.0 °F 43.5 °F 42.1 °F 90% 30.24 in 9.0 mi NNW 3.5 mph - N/A   Clear
7:53 AM 53.1 °F - 46.9 °F 80% 30.26 in 10.0 mi NNW 6.9 mph - N/A   Clear
8:53 AM 59.0 °F - 45.0 °F 60% 30.28 in 10.0 mi North 8.1 mph - N/A   Clear
9:53 AM 64.0 °F - 42.1 °F 45% 30.29 in 10.0 mi North 9.2 mph - N/A   Clear
10:53 AM 66.9 °F - 44.1 °F 44% 30.29 in 10.0 mi NNE 10.4 mph - N/A   Clear
11:53 AM 70.0 °F - 39.0 °F 32% 30.28 in 10.0 mi NE 6.9 mph - N/A   Clear
12:53 PM 71.1 °F - 37.9 °F 30% 30.25 in - North 4.6 mph - N/A   Clear
1:53 PM 72.0 °F - 36.0 °F 27% 30.22 in 10.0 mi Calm Calm - N/A   Clear
2:53 PM 71.1 °F - 37.0 °F 29% 30.22 in 10.0 mi Variable 6.9 mph - N/A   Clear
3:53 PM 70.0 °F - 39.9 °F 33% 30.21 in 10.0 mi NE 3.5 mph - N/A   Clear
4:53 PM 66.9 °F - 43.0 °F 42% 30.22 in 10.0 mi ENE 9.2 mph - N/A   Clear
5:53 PM 60.1 °F - 45.0 °F 57% 30.23 in 10.0 mi ENE 5.8 mph - N/A   Clear
6:53 PM 57.9 °F - 46.0 °F 65% 30.23 in 10.0 mi NE 5.8 mph - N/A   Clear
7:53 PM 55.9 °F - 46.0 °F 69% 30.25 in 10.0 mi NE 3.5 mph - N/A   Clear
8:53 PM 55.9 °F - 46.0 °F 69% 30.25 in 10.0 mi NNE 3.5 mph - N/A   Clear
9:53 PM 54.0 °F - 46.0 °F 75% 30.27 in 10.0 mi North 3.5 mph - N/A   Clear
10:53 PM 55.0 °F - 46.0 °F 72% 30.27 in 10.0 mi North 4.6 mph - N/A   Clear
11:53 PM 55.0 °F - 46.0 °F 72% 30.26 in 10.0 mi North 3.5 mph - N/A   Clear